Fingard — OJNG — position and weather

sailwx.info

Track history (hours):
 
Tides and Currents Weather Stations Pressure Air Temp Water Temp Dewpoint Dewpoint Depression Visibility Wind Speed Wind Dir Waves Ship Positions

Fingard

Last reported at 2014-Sep-22 11:33 UTC. Time now 2014-Sep-22 12:16 UTC.
Position N 51°08' E 003°46'.

Length 95 m; draft 4 m.

Type: Ship. MMSI: 230999000.

Date/timePositionNaut miles runAvg speedWind from/ knotsBaromVisibWave heightAir tempDewpointWater temp
2014-Sep-22 11:33N 51°08' E 003°46'0 0.0
2014-Sep-22 10:30N 51°08' E 003°46'0 0.0
2014-Sep-22 09:30N 51°08' E 003°46'0 0.0
2014-Sep-22 08:33N 51°08' E 003°46'0 0.0
2014-Sep-22 07:33N 51°08' E 003°46'0 0.0
2014-Sep-22 06:27N 51°08' E 003°46'0 0.0
2014-Sep-22 05:30N 51°08' E 003°46'0 0.0
2014-Sep-22 04:30N 51°08' E 003°46'0 0.0
2014-Sep-22 03:33N 51°08' E 003°46'0 0.0
2014-Sep-22 02:33N 51°08' E 003°46'0 0.0
2014-Sep-22 01:30N 51°08' E 003°46'0 0.0
2014-Sep-22 00:30N 51°08' E 003°46'0 0.0
2014-Sep-21 23:30N 51°08' E 003°46'0 0.0
2014-Sep-21 22:24N 51°08' E 003°46'0 0.0
2014-Sep-21 21:30N 51°08' E 003°46'0 0.0
2014-Sep-21 20:33N 51°08' E 003°46'0 0.0
2014-Sep-21 19:30N 51°08' E 003°46'0 0.0
2014-Sep-21 18:33N 51°08' E 003°46'0 0.0
2014-Sep-21 17:33N 51°08' E 003°46'0 0.0
2014-Sep-21 16:24N 51°08' E 003°46'0 0.0
2014-Sep-21 15:29N 51°08' E 003°46'0 0.0
2014-Sep-21 14:33N 51°08' E 003°46'0 0.0
2014-Sep-21 13:29N 51°08' E 003°46'0 0.0
2014-Sep-21 12:30N 51°08' E 003°46'0 0.0
2014-Sep-21 11:32N 51°08' E 003°46'0 0.0
2014-Sep-21 10:32N 51°08' E 003°46'0 0.0
2014-Sep-21 09:32N 51°08' E 003°46'0 0.0
2014-Sep-21 08:32N 51°08' E 003°46'0 0.0
2014-Sep-21 07:32N 51°08' E 003°46'0 0.0
2014-Sep-21 06:32N 51°08' E 003°46'0 0.0
2014-Sep-21 05:32N 51°08' E 003°46'0 0.0
2014-Sep-21 04:29N 51°08' E 003°46'0 0.0
2014-Sep-21 03:29N 51°08' E 003°46'0 0.0
2014-Sep-21 02:32N 51°08' E 003°46'0 0.0
2014-Sep-21 01:32N 51°08' E 003°46'0 0.0
2014-Sep-21 00:26N 51°08' E 003°46'0 0.0
2014-Sep-20 23:29N 51°08' E 003°46'0 0.0
2014-Sep-20 22:29N 51°08' E 003°46'0 0.0
2014-Sep-20 21:32N 51°08' E 003°46'0 0.0
2014-Sep-20 20:32N 51°08' E 003°46'0 0.0
2014-Sep-20 19:32N 51°08' E 003°46'0 0.0
2014-Sep-20 18:32N 51°08' E 003°46'0 0.0
2014-Sep-20 17:32N 51°08' E 003°46'0 0.0
2014-Sep-20 16:29N 51°08' E 003°46'0 0.0
2014-Sep-20 15:32N 51°08' E 003°46'0 0.0
2014-Sep-20 14:26N 51°08' E 003°46'0 0.0
2014-Sep-20 13:32N 51°08' E 003°46'0 0.0
2014-Sep-20 12:29N 51°08' E 003°46'0 0.0
2014-Sep-20 11:32N 51°08' E 003°46'0 0.0
2014-Sep-20 10:32N 51°08' E 003°46'0 0.0
2014-Sep-20 09:29N 51°08' E 003°46'0 0.0
2014-Sep-20 08:28N 51°08' E 003°46'0 0.0
2014-Sep-20 07:31N 51°08' E 003°46'0 0.0
2014-Sep-20 06:31N 51°08' E 003°46'0 0.0
2014-Sep-20 05:28N 51°08' E 003°46'0 0.0
2014-Sep-20 04:28N 51°08' E 003°46'0 0.0
2014-Sep-20 03:31N 51°08' E 003°46'0 0.0
2014-Sep-20 02:31N 51°08' E 003°46'0 0.0
2014-Sep-20 01:31N 51°08' E 003°46'0 0.0
2014-Sep-20 00:28N 51°08' E 003°46'0 0.0
2014-Sep-19 23:25N 51°08' E 003°46'0 0.0
2014-Sep-19 22:22N 51°08' E 003°46'0 0.0
2014-Sep-19 21:28N 51°08' E 003°46'0 0.0
2014-Sep-19 20:31N 51°08' E 003°46'0 0.0
2014-Sep-19 19:31N 51°08' E 003°46'0 0.0
2014-Sep-19 18:31N 51°08' E 003°46'0 0.0
2014-Sep-19 17:31N 51°08' E 003°46'4 3.9
2014-Sep-19 16:33N 51°11' E 003°48'9 8.5
2014-Sep-19 15:34N 51°20' E 003°49'2 2.2
2014-Sep-19 14:34N 51°21' E 003°47'9 9.5
2014-Sep-19 13:34N 51°25' E 003°33'9 9.0
2014-Sep-19 12:34N 51°24' E 003°19'9 8.4
2014-Sep-19 11:32N 51°22' E 003°06'8 7.9
2014-Sep-19 10:31N 51°22' E 002°53'8 8.2
2014-Sep-19 09:33N 51°22' E 002°40'13 6.1
2014-Sep-19 07:30N 51°19' E 002°21'10 9.6
2014-Sep-19 06:25N 51°13' E 002°07'8 8.8
2014-Sep-19 05:33N 51°09' E 001°56'9 8.5
2014-Sep-19 04:33N 51°04' E 001°45'9 9.0
2014-Sep-19 03:33N 50°58' E 001°35'30 9.3
2014-Sep-19 00:17N 50°33' E 001°08'7 9.7
2014-Sep-18 23:33N 50°31' E 000°57'1110.7
2014-Sep-18 22:33N 50°28' E 000°41'1211.2
2014-Sep-18 21:29N 50°25' E 000°23'1111.4
2014-Sep-18 20:33N 50°23' E 000°06'9 9.1
2014-Sep-18 19:31N 50°28' W 000°06'1211.8
2014-Sep-18 18:31N 50°39' W 000°10'1111.0
2014-Sep-18 17:33N 50°49' W 000°15'1 0.7
2014-Sep-18 16:33N 50°50' W 000°14'0 0.0
2014-Sep-18 15:32N 50°50' W 000°14'0 0.0
2014-Sep-18 14:32N 50°50' W 000°14'0 0.0
2014-Sep-18 13:32N 50°50' W 000°14'0 0.0
2014-Sep-18 12:32N 50°50' W 000°14'0 0.0
2014-Sep-18 11:31N 50°50' W 000°14'0 0.0
2014-Sep-18 10:31N 50°50' W 000°14'0 0.0
2014-Sep-18 09:31N 50°50' W 000°14'0 0.0
2014-Sep-18 08:31N 50°50' W 000°14'0 0.0
2014-Sep-18 07:31N 50°50' W 000°14'0 0.2
2014-Sep-18 06:33N 50°50' W 000°14'1 1.5
2014-Sep-18 05:33N 50°48' W 000°15'6 6.5
2014-Sep-18 04:33N 50°42' W 000°14'8 7.8
2014-Sep-18 03:31N 50°34' W 000°17'9 9.0
2014-Sep-18 02:33N 50°30' W 000°29'2 1.9
2014-Sep-18 01:16N 50°28' W 000°26'6 7.8
2014-Sep-18 00:32N 50°30' W 000°18'17 8.5
2014-Sep-17 22:29N 50°34' E 000°09'8 8.9
2014-Sep-17 21:33N 50°36' E 000°22'9 8.8
2014-Sep-17 20:33N 50°39' E 000°35'8 8.5
2014-Sep-17 19:33N 50°44' E 000°46'8 8.0
2014-Sep-17 18:32N 50°48' E 000°56'8 7.6
2014-Sep-17 17:31N 50°53' E 001°06'10 9.5
2014-Sep-17 16:31N 50°59' E 001°18'1212.5
2014-Sep-17 15:33N 51°07' E 001°32'1313.3
2014-Sep-17 14:34N 51°17' E 001°47'1413.8
2014-Sep-17 13:33N 51°29' E 001°56'1312.9
2014-Sep-17 12:33N 51°40' E 002°08'1312.8
2014-Sep-17 11:32N 51°53' E 002°10'1212.0
2014-Sep-17 10:33N 52°05' E 002°10'2311.5
2014-Sep-17 08:33N 52°28' E 002°09'1111.0
2014-Sep-17 07:33N 52°39' E 002°06'1111.1
2014-Sep-17 06:33N 52°47' E 001°56'1211.7
2014-Sep-17 05:33N 52°54' E 001°40'1212.2
2014-Sep-17 04:33N 53°03' E 001°25'1312.6
2014-Sep-17 03:33N 53°12' E 001°11'2612.7
2014-Sep-17 01:32N 53°27' E 000°37'1212.5
2014-Sep-17 00:33N 53°32' E 000°18'1211.6
2014-Sep-16 23:33N 53°35' W 000°00'1111.4
2014-Sep-16 22:33N 53°43' W 000°15'2 2.3
2014-Sep-16 21:33N 53°45' W 000°18'0 0.0
2014-Sep-16 20:33N 53°45' W 000°18'0 0.0
2014-Sep-16 19:33N 53°45' W 000°18'0 0.0
2014-Sep-16 18:21N 53°45' W 000°18'0 0.0
2014-Sep-16 17:33N 53°45' W 000°18'0 0.0
2014-Sep-16 16:33N 53°45' W 000°18'0 0.0
2014-Sep-16 15:27N 53°45' W 000°18'0 0.0
2014-Sep-16 14:33N 53°45' W 000°18'0 0.0
2014-Sep-16 13:24N 53°45' W 000°18'0 0.0
2014-Sep-16 12:30N 53°45' W 000°18'0 0.0
2014-Sep-16 11:30N 53°45' W 000°18'0 0.0
2014-Sep-16 10:27N 53°45' W 000°18'0 0.0
2014-Sep-16 09:27N 53°45' W 000°18'0 0.0
2014-Sep-16 08:12N 53°45' W 000°18'0 0.0
2014-Sep-16 07:27N 53°45' W 000°18'0 0.0
2014-Sep-16 05:18N 53°45' W 000°18'0 0.0
2014-Sep-16 04:15N 53°45' W 000°18'0 0.0
2014-Sep-16 03:30N 53°45' W 000°18'0 0.0
2014-Sep-16 02:30N 53°45' W 000°18'0 0.0
2014-Sep-16 01:12N 53°45' W 000°18'0 0.0
2014-Sep-16 00:30N 53°45' W 000°18'0 0.0
2014-Sep-15 23:30N 53°45' W 000°18'0 0.2
2014-Sep-15 22:33N 53°45' W 000°18'1 1.0
2014-Sep-15 21:34N 53°44' W 000°16'9 9.0
2014-Sep-15 20:33N 53°37' W 000°06'1010.2
2014-Sep-15 19:33N 53°33' E 000°09'1211.6
2014-Sep-15 18:33N 53°40' E 000°25'1311.7
2014-Sep-15 17:27N 53°50' E 000°39'7 8.1
2014-Sep-15 16:31N 53°57' E 000°46'12 6.1
2014-Sep-15 14:32N 54°05' E 001°01'35810.5
2014-Sep-14 04:23N 57°38' E 009°34'3311.8
2014-Sep-14 01:32N 57°50' E 010°33'10 2.5
2014-Sep-13 21:28N 57°40' E 010°37'0 0.1
2014-Sep-13 20:33N 57°40' E 010°37'1410.1
2014-Sep-13 19:09N 57°34' E 011°01'712.3
2014-Sep-13 18:34N 57°31' E 011°13'1110.8
2014-Sep-13 17:33N 57°24' E 011°28'1212.0
2014-Sep-13 16:33N 57°13' E 011°36'1212.0
2014-Sep-13 15:33N 57°02' E 011°44'1211.7
2014-Sep-13 14:33N 56°51' E 011°51'1111.2
2014-Sep-13 13:33N 56°40' E 011°57'1111.1
2014-Sep-13 12:33N 56°29' E 012°01'1111.1
2014-Sep-13 11:34N 56°18' E 012°06'1212.2
2014-Sep-13 10:33N 56°11' E 012°24'1312.6
2014-Sep-13 09:34N 56°02' E 012°40'1111.4
2014-Sep-13 08:34N 55°51' E 012°44'1211.6
2014-Sep-13 07:34N 55°39' E 012°42'1111.0
2014-Sep-13 06:33N 55°28' E 012°43'1010.4
2014-Sep-13 05:33N 55°18' E 012°43'1111.3
2014-Sep-13 04:34N 55°15' E 013°02'7810.6
2014-Sep-12 21:14N 55°39' E 015°13'2111.4
2014-Sep-12 19:26N 55°50' E 015°44'  
Track history (hours):
 
Tides and Currents Weather Stations Pressure Air Temp Water Temp Dewpoint Dewpoint Depression Visibility Wind Speed Wind Dir Waves Ship Positions

Fingard

Last reported at 2014-Sep-22 11:33 UTC. Time now 2014-Sep-22 12:16 UTC.
Position N 51°08' E 003°46'.

Length 95 m; draft 4 m.

Type: Ship. MMSI: 230999000.

Date/timePositionNaut miles runAvg speedWind from/ knotsBaromVisibWave heightAir tempDewpointWater temp
2014-Sep-22 11:33N 51°08' E 003°46'0 0.0
2014-Sep-22 10:30N 51°08' E 003°46'0 0.0
2014-Sep-22 09:30N 51°08' E 003°46'0 0.0
2014-Sep-22 08:33N 51°08' E 003°46'0 0.0
2014-Sep-22 07:33N 51°08' E 003°46'0 0.0
2014-Sep-22 06:27N 51°08' E 003°46'0 0.0
2014-Sep-22 05:30N 51°08' E 003°46'0 0.0
2014-Sep-22 04:30N 51°08' E 003°46'0 0.0
2014-Sep-22 03:33N 51°08' E 003°46'0 0.0
2014-Sep-22 02:33N 51°08' E 003°46'0 0.0
2014-Sep-22 01:30N 51°08' E 003°46'0 0.0
2014-Sep-22 00:30N 51°08' E 003°46'0 0.0
2014-Sep-21 23:30N 51°08' E 003°46'0 0.0
2014-Sep-21 22:24N 51°08' E 003°46'0 0.0
2014-Sep-21 21:30N 51°08' E 003°46'0 0.0
2014-Sep-21 20:33N 51°08' E 003°46'0 0.0
2014-Sep-21 19:30N 51°08' E 003°46'0 0.0
2014-Sep-21 18:33N 51°08' E 003°46'0 0.0
2014-Sep-21 17:33N 51°08' E 003°46'0 0.0
2014-Sep-21 16:24N 51°08' E 003°46'0 0.0
2014-Sep-21 15:29N 51°08' E 003°46'0 0.0
2014-Sep-21 14:33N 51°08' E 003°46'0 0.0
2014-Sep-21 13:29N 51°08' E 003°46'0 0.0
2014-Sep-21 12:30N 51°08' E 003°46'0 0.0
2014-Sep-21 11:32N 51°08' E 003°46'0 0.0
2014-Sep-21 10:32N 51°08' E 003°46'0 0.0
2014-Sep-21 09:32N 51°08' E 003°46'0 0.0
2014-Sep-21 08:32N 51°08' E 003°46'0 0.0
2014-Sep-21 07:32N 51°08' E 003°46'0 0.0
2014-Sep-21 06:32N 51°08' E 003°46'0 0.0
2014-Sep-21 05:32N 51°08' E 003°46'0 0.0
2014-Sep-21 04:29N 51°08' E 003°46'0 0.0
2014-Sep-21 03:29N 51°08' E 003°46'0 0.0
2014-Sep-21 02:32N 51°08' E 003°46'0 0.0
2014-Sep-21 01:32N 51°08' E 003°46'0 0.0
2014-Sep-21 00:26N 51°08' E 003°46'0 0.0
2014-Sep-20 23:29N 51°08' E 003°46'0 0.0
2014-Sep-20 22:29N 51°08' E 003°46'0 0.0
2014-Sep-20 21:32N 51°08' E 003°46'0 0.0
2014-Sep-20 20:32N 51°08' E 003°46'0 0.0
2014-Sep-20 19:32N 51°08' E 003°46'0 0.0
2014-Sep-20 18:32N 51°08' E 003°46'0 0.0
2014-Sep-20 17:32N 51°08' E 003°46'0 0.0
2014-Sep-20 16:29N 51°08' E 003°46'0 0.0
2014-Sep-20 15:32N 51°08' E 003°46'0 0.0
2014-Sep-20 14:26N 51°08' E 003°46'0 0.0
2014-Sep-20 13:32N 51°08' E 003°46'0 0.0
2014-Sep-20 12:29N 51°08' E 003°46'0 0.0
2014-Sep-20 11:32N 51°08' E 003°46'0 0.0
2014-Sep-20 10:32N 51°08' E 003°46'0 0.0
2014-Sep-20 09:29N 51°08' E 003°46'0 0.0
2014-Sep-20 08:28N 51°08' E 003°46'0 0.0
2014-Sep-20 07:31N 51°08' E 003°46'0 0.0
2014-Sep-20 06:31N 51°08' E 003°46'0 0.0
2014-Sep-20 05:28N 51°08' E 003°46'0 0.0
2014-Sep-20 04:28N 51°08' E 003°46'0 0.0
2014-Sep-20 03:31N 51°08' E 003°46'0 0.0
2014-Sep-20 02:31N 51°08' E 003°46'0 0.0
2014-Sep-20 01:31N 51°08' E 003°46'0 0.0
2014-Sep-20 00:28N 51°08' E 003°46'0 0.0
2014-Sep-19 23:25N 51°08' E 003°46'0 0.0
2014-Sep-19 22:22N 51°08' E 003°46'0 0.0
2014-Sep-19 21:28N 51°08' E 003°46'0 0.0
2014-Sep-19 20:31N 51°08' E 003°46'0 0.0
2014-Sep-19 19:31N 51°08' E 003°46'0 0.0
2014-Sep-19 18:31N 51°08' E 003°46'0 0.0
2014-Sep-19 17:31N 51°08' E 003°46'4 3.9
2014-Sep-19 16:33N 51°11' E 003°48'9 8.5
2014-Sep-19 15:34N 51°20' E 003°49'2 2.2
2014-Sep-19 14:34N 51°21' E 003°47'9 9.5
2014-Sep-19 13:34N 51°25' E 003°33'9 9.0
2014-Sep-19 12:34N 51°24' E 003°19'9 8.4
2014-Sep-19 11:32N 51°22' E 003°06'8 7.9
2014-Sep-19 10:31N 51°22' E 002°53'8 8.2
2014-Sep-19 09:33N 51°22' E 002°40'13 6.1
2014-Sep-19 07:30N 51°19' E 002°21'10 9.6
2014-Sep-19 06:25N 51°13' E 002°07'8 8.8
2014-Sep-19 05:33N 51°09' E 001°56'9 8.5
2014-Sep-19 04:33N 51°04' E 001°45'9 9.0
2014-Sep-19 03:33N 50°58' E 001°35'30 9.3
2014-Sep-19 00:17N 50°33' E 001°08'7 9.7
2014-Sep-18 23:33N 50°31' E 000°57'1110.7
2014-Sep-18 22:33N 50°28' E 000°41'1211.2
2014-Sep-18 21:29N 50°25' E 000°23'1111.4
2014-Sep-18 20:33N 50°23' E 000°06'9 9.1
2014-Sep-18 19:31N 50°28' W 000°06'1211.8
2014-Sep-18 18:31N 50°39' W 000°10'1111.0
2014-Sep-18 17:33N 50°49' W 000°15'1 0.7
2014-Sep-18 16:33N 50°50' W 000°14'0 0.0
2014-Sep-18 15:32N 50°50' W 000°14'0 0.0
2014-Sep-18 14:32N 50°50' W 000°14'0 0.0
2014-Sep-18 13:32N 50°50' W 000°14'0 0.0
2014-Sep-18 12:32N 50°50' W 000°14'0 0.0
2014-Sep-18 11:31N 50°50' W 000°14'0 0.0
2014-Sep-18 10:31N 50°50' W 000°14'0 0.0
2014-Sep-18 09:31N 50°50' W 000°14'0 0.0
2014-Sep-18 08:31N 50°50' W 000°14'0 0.0
2014-Sep-18 07:31N 50°50' W 000°14'0 0.2
2014-Sep-18 06:33N 50°50' W 000°14'1 1.5
2014-Sep-18 05:33N 50°48' W 000°15'6 6.5
2014-Sep-18 04:33N 50°42' W 000°14'8 7.8
2014-Sep-18 03:31N 50°34' W 000°17'9 9.0
2014-Sep-18 02:33N 50°30' W 000°29'2 1.9
2014-Sep-18 01:16N 50°28' W 000°26'6 7.8
2014-Sep-18 00:32N 50°30' W 000°18'17 8.5
2014-Sep-17 22:29N 50°34' E 000°09'8 8.9
2014-Sep-17 21:33N 50°36' E 000°22'9 8.8
2014-Sep-17 20:33N 50°39' E 000°35'8 8.5
2014-Sep-17 19:33N 50°44' E 000°46'8 8.0
2014-Sep-17 18:32N 50°48' E 000°56'8 7.6
2014-Sep-17 17:31N 50°53' E 001°06'10 9.5
2014-Sep-17 16:31N 50°59' E 001°18'1212.5
2014-Sep-17 15:33N 51°07' E 001°32'1313.3
2014-Sep-17 14:34N 51°17' E 001°47'1413.8
2014-Sep-17 13:33N 51°29' E 001°56'1312.9
2014-Sep-17 12:33N 51°40' E 002°08'1312.8
2014-Sep-17 11:32N 51°53' E 002°10'1212.0
2014-Sep-17 10:33N 52°05' E 002°10'2311.5
2014-Sep-17 08:33N 52°28' E 002°09'1111.0
2014-Sep-17 07:33N 52°39' E 002°06'1111.1
2014-Sep-17 06:33N 52°47' E 001°56'1211.7
2014-Sep-17 05:33N 52°54' E 001°40'1212.2
2014-Sep-17 04:33N 53°03' E 001°25'1312.6
2014-Sep-17 03:33N 53°12' E 001°11'2612.7
2014-Sep-17 01:32N 53°27' E 000°37'1212.5
2014-Sep-17 00:33N 53°32' E 000°18'1211.6
2014-Sep-16 23:33N 53°35' W 000°00'1111.4
2014-Sep-16 22:33N 53°43' W 000°15'2 2.3
2014-Sep-16 21:33N 53°45' W 000°18'0 0.0
2014-Sep-16 20:33N 53°45' W 000°18'0 0.0
2014-Sep-16 19:33N 53°45' W 000°18'0 0.0
2014-Sep-16 18:21N 53°45' W 000°18'0 0.0
2014-Sep-16 17:33N 53°45' W 000°18'0 0.0
2014-Sep-16 16:33N 53°45' W 000°18'0 0.0
2014-Sep-16 15:27N 53°45' W 000°18'0 0.0
2014-Sep-16 14:33N 53°45' W 000°18'0 0.0
2014-Sep-16 13:24N 53°45' W 000°18'0 0.0
2014-Sep-16 12:30N 53°45' W 000°18'0 0.0
2014-Sep-16 11:30N 53°45' W 000°18'0 0.0
2014-Sep-16 10:27N 53°45' W 000°18'0 0.0
2014-Sep-16 09:27N 53°45' W 000°18'0 0.0
2014-Sep-16 08:12N 53°45' W 000°18'0 0.0
2014-Sep-16 07:27N 53°45' W 000°18'0 0.0
2014-Sep-16 05:18N 53°45' W 000°18'0 0.0
2014-Sep-16 04:15N 53°45' W 000°18'0 0.0
2014-Sep-16 03:30N 53°45' W 000°18'0 0.0
2014-Sep-16 02:30N 53°45' W 000°18'0 0.0
2014-Sep-16 01:12N 53°45' W 000°18'0 0.0
2014-Sep-16 00:30N 53°45' W 000°18'0 0.0
2014-Sep-15 23:30N 53°45' W 000°18'0 0.2
2014-Sep-15 22:33N 53°45' W 000°18'1 1.0
2014-Sep-15 21:34N 53°44' W 000°16'9 9.0
2014-Sep-15 20:33N 53°37' W 000°06'1010.2
2014-Sep-15 19:33N 53°33' E 000°09'1211.6
2014-Sep-15 18:33N 53°40' E 000°25'1311.7
2014-Sep-15 17:27N 53°50' E 000°39'7 8.1
2014-Sep-15 16:31N 53°57' E 000°46'12 6.1
2014-Sep-15 14:32N 54°05' E 001°01'35810.5
2014-Sep-14 04:23N 57°38' E 009°34'3311.8
2014-Sep-14 01:32N 57°50' E 010°33'10 2.5
2014-Sep-13 21:28N 57°40' E 010°37'0 0.1
2014-Sep-13 20:33N 57°40' E 010°37'1410.1
2014-Sep-13 19:09N 57°34' E 011°01'712.3
2014-Sep-13 18:34N 57°31' E 011°13'1110.8
2014-Sep-13 17:33N 57°24' E 011°28'1212.0
2014-Sep-13 16:33N 57°13' E 011°36'1212.0
2014-Sep-13 15:33N 57°02' E 011°44'1211.7
2014-Sep-13 14:33N 56°51' E 011°51'1111.2
2014-Sep-13 13:33N 56°40' E 011°57'1111.1
2014-Sep-13 12:33N 56°29' E 012°01'1111.1
2014-Sep-13 11:34N 56°18' E 012°06'1212.2
2014-Sep-13 10:33N 56°11' E 012°24'1312.6
2014-Sep-13 09:34N 56°02' E 012°40'1111.4
2014-Sep-13 08:34N 55°51' E 012°44'1211.6
2014-Sep-13 07:34N 55°39' E 012°42'1111.0
2014-Sep-13 06:33N 55°28' E 012°43'1010.4
2014-Sep-13 05:33N 55°18' E 012°43'1111.3
2014-Sep-13 04:34N 55°15' E 013°02'7810.6
2014-Sep-12 21:14N 55°39' E 015°13'2111.4
2014-Sep-12 19:26N 55°50' E 015°44'  

Dump ship's entire track history